Fort Myers, FL

12:50 PM EDT on March 28, 2017 (GMT -0400)
Page

Weather History for KFMY - May, 2012

Change the Weather History Date:

Sunday, May 13, 2012

  Actual Average Record
Temperature  
Mean Temperature 80 °F 79 °F  
Max Temperature 91 °F 89 °F 96 °F (1998)
Min Temperature 69 °F 68 °F 56 °F (1941)
Degree Days  
Heating Degree Days 0 0  
Month to date heating degree days 0 0  
Since 1 July heating degree days 129 287  
Cooling Degree Days 15 14  
Month to date cooling degree days 207 161  
Year to date cooling degree days 1137 791  
Growing Degree Days 30 (Base 50)    
Moisture  
Dew Point 67 °F    
Average Humidity 74    
Maximum Humidity 90    
Minimum Humidity 38    
Precipitation  
Precipitation 2.05 in 0.06 in 4.57 in (1972)
Month to date precipitation 4.53 0.77  
Year to date precipitation 8.56 9.92  
Sea Level Pressure  
Sea Level Pressure 30.07 in    
Wind  
Wind Speed 7 mph (SE)    
Max Wind Speed 16 mph    
Max Gust Speed 24 mph    
Visibility 8 miles    
Events Rain    
T = Trace of Precipitation, MM = Missing Value Source: NWS Daily Summary

Daily Weather History Graph

Daily Weather History Graph

Search for Another Location

Airport or City:

Trip Planner

Search our weather history database for the weather conditions in past years. The results will help you decide how hot, cold, wet, or windy it might be!

Date:

Astronomy

May. 13, 2012 Rise Set
Actual Time 6:41 AM EDT 8:06 PM EDT
Civil Twilight 6:16 AM EDT 8:31 PM EDT
Nautical Twilight 5:46 AM EDT 9:01 PM EDT
Astronomical Twilight 5:15 AM EDT 9:32 PM EDT
Moon 2:07 AM EDT (5/13) 2:02 PM EDT (5/13)
Length of Visible Light 14h 15m
Length of Day
13h 25m
Last Quarter, 42% of the Moon is Illuminated
May 13
Last Quarter
May 20
New
May 28
First Quarter
Jun 4
Full
Jun 11
Last Quarter

Hourly Weather History & Observations

Time (EDT) Temp. Heat Index Dew Point Humidity Pressure Visibility Wind Dir Wind Speed Gust Speed Precip Events Conditions
12:53 AM 73.9 °F - 64.9 °F 73% 30.12 in 10.0 mi East 9.2 mph - N/A   Clear
1:53 AM 73.0 °F - 64.9 °F 76% 30.11 in 10.0 mi East 6.9 mph - N/A   Clear
2:53 AM 73.0 °F - 64.9 °F 76% 30.10 in 10.0 mi East 6.9 mph - N/A   Clear
3:53 AM 71.1 °F - 66.0 °F 84% 30.11 in 10.0 mi NE 6.9 mph - N/A   Clear
4:53 AM 70.0 °F - 64.9 °F 84% 30.11 in 10.0 mi ENE 4.6 mph - N/A   Clear
5:53 AM 69.1 °F - 64.9 °F 87% 30.11 in 10.0 mi ENE 3.5 mph - N/A   Clear
6:53 AM 69.1 °F - 64.9 °F 87% 30.11 in 10.0 mi ENE 4.6 mph - N/A   Clear
7:53 AM 71.1 °F - 66.0 °F 84% 30.12 in 10.0 mi East 5.8 mph - N/A   Clear
8:53 AM 75.0 °F - 66.9 °F 76% 30.13 in 10.0 mi East 6.9 mph - N/A   Clear
9:53 AM 80.1 °F 82.7 °F 68.0 °F 67% 30.12 in 10.0 mi East 9.2 mph - N/A   Clear
11:53 AM 84.9 °F 86.1 °F 64.0 °F 49% 30.10 in 10.0 mi SE 6.9 mph - N/A   Clear
12:53 PM 86.0 °F 86.3 °F 62.1 °F 44% 30.08 in 10.0 mi ESE 8.1 mph - N/A   Clear
1:53 PM 89.1 °F 88.8 °F 60.1 °F 38% 30.06 in 10.0 mi SSE 8.1 mph - N/A   Partly Cloudy
2:53 PM 90.0 °F 90.0 °F 61.0 °F 38% 30.04 in 10.0 mi East 9.2 mph - N/A   Scattered Clouds
3:53 PM 90.0 °F 89.7 °F 60.1 °F 37% 30.01 in 10.0 mi SSE 5.8 mph - N/A   Scattered Clouds
4:53 PM 88.0 °F 90.7 °F 66.9 °F 49% 30.00 in 10.0 mi SW 6.9 mph - N/A   Mostly Cloudy
5:53 PM 81.0 °F 84.1 °F 69.1 °F 67% 30.00 in 3.0 mi SW 8.1 mph - 0.02 in Rain Rain
6:00 PM 80.6 °F 83.9 °F 69.8 °F 70% 29.99 in 2.5 mi WSW 5.8 mph - 0.04 in Rain Light Rain
6:07 PM 80.6 °F 84.6 °F 71.6 °F 74% 29.99 in 6.0 mi WSW 5.8 mph - 0.04 in Rain Light Rain
6:53 PM 81.0 °F 84.1 °F 69.1 °F 67% 30.00 in 10.0 mi South 9.2 mph 16.1 mph 0.04 in   Scattered Clouds
7:47 PM 75.2 °F - 71.6 °F 89% 30.03 in 1.8 mi South 11.5 mph - 0.09 in Rain Heavy Rain
7:53 PM 73.9 °F - 71.1 °F 91% 30.05 in 1.0 mi SSW 11.5 mph - 0.32 in Rain Heavy Rain
7:58 PM 73.4 °F - 69.8 °F 88% 30.05 in 1.0 mi SSW 13.8 mph 21.9 mph 0.15 in Rain Heavy Rain
8:14 PM 71.6 °F - 69.8 °F 94% 30.07 in 0.8 mi SW 9.2 mph - 0.81 in Rain Heavy Rain
8:26 PM 69.8 °F - 68.0 °F 94% 30.06 in 1.0 mi SW 8.1 mph - 1.35 in Rain Heavy Rain
8:49 PM 71.6 °F - 68.0 °F 88% 30.06 in 3.0 mi WNW 6.9 mph - 1.65 in Rain Light Rain
8:53 PM 71.1 °F - 68.0 °F 90% 30.07 in 5.0 mi West 6.9 mph - 1.65 in Rain Light Rain
9:53 PM 73.9 °F - 70.0 °F 87% 30.06 in 10.0 mi Calm Calm - 0.01 in Rain Light Rain
10:53 PM 73.9 °F - 71.1 °F 91% 30.08 in 10.0 mi NE 4.6 mph - 0.01 in   Mostly Cloudy
11:53 PM 75.0 °F - 72.0 °F 90% 30.08 in 9.0 mi NE 3.5 mph - N/A   Partly Cloudy